EGOP

Pembrey Sands Airport

Pembrey Sands, United Kingdom
Issued Wind Visibility Ceiling Temperature Dew Point Humidity Barometer
Oct-19
07:50 UTC
120°
11 KTS
5,005 meters Broken
15,000' AGL
13° C
55° F
12° C
54° F
94% 29.59" Hg
1002 hPa
MVFR
Oct-19
06:50 UTC
120°
9 KTS
10,000+ meters   13° C
55° F
12° C
54° F
94% 29.62" Hg
1003 hPa
VFR
Oct-19
05:50 UTC
150°
10 KTS
10,000+ meters Broken
1,900' AGL
14° C
57° F
12° C
54° F
88% 29.62" Hg
1003 hPa
MVFR
Oct-19
04:50 UTC
150°
11 KTS
10,000+ meters   14° C
57° F
12° C
54° F
88% 29.65" Hg
1004 hPa
VFR
Oct-19
03:50 UTC
170°
18 KTS
8,996 meters   14° C
57° F
13° C
55° F
94% 29.65" Hg
1004 hPa
VFR
Oct-19
02:50 UTC
150°
15 KTS
10,000+ meters Broken
2,500' AGL
14° C
57° F
13° C
55° F
94% 29.68" Hg
1005 hPa
MVFR
Oct-19
01:50 UTC
170°
17 KTS
10,000+ meters Broken
3,700' AGL
14° C
57° F
13° C
55° F
94% 29.7" Hg
1006 hPa
VFR
Oct-19
00:50 UTC
150°
13 KTS
10,000+ meters Broken
3,100' AGL
14° C
57° F
12° C
54° F
88% 29.73" Hg
1007 hPa
VFR
Oct-18
23:50 UTC
160°
15 KTS
10,000+ meters Broken
3,000' AGL
14° C
57° F
13° C
55° F
94% 29.73" Hg
1007 hPa
MVFR
Oct-18
22:50 UTC
130°
11 KTS
8,996 meters Broken
1,200' AGL
13° C
55° F
12° C
54° F
94% 29.73" Hg
1007 hPa
MVFR
Oct-18
21:50 UTC
120°
11 KTS
7,001 meters Broken
1,500' AGL
13° C
55° F
12° C
54° F
94% 29.73" Hg
1007 hPa
MVFR
Oct-18
20:50 UTC
120°
10 KTS
6,003 meters Broken
3,600' AGL
12° C
54° F
12° C
54° F
100% 29.76" Hg
1008 hPa
MVFR
Oct-18
19:50 UTC
110°
12 KTS
6,003 meters   12° C
54° F
12° C
54° F
100% 29.76" Hg
1008 hPa
MVFR
Oct-18
18:50 UTC
120°
9 KTS
7,001 meters   12° C
54° F
11° C
52° F
94% 29.76" Hg
1008 hPa
MVFR
Oct-18
17:50 UTC
110°
10 KTS
10,000+ meters Broken
18,000' AGL
13° C
55° F
11° C
52° F
88% 29.76" Hg
1008 hPa
VFR
Oct-18
16:50 UTC
110°
9 KTS
10,000+ meters Overcast
3,200' AGL
13° C
55° F
12° C
54° F
94% 29.79" Hg
1009 hPa
VFR
Oct-18
15:50 UTC
110°
8 KTS
10,000+ meters Broken
2,800' AGL
13° C
55° F
12° C
54° F
94% 29.79" Hg
1009 hPa
MVFR
Oct-18
14:50 UTC
120°
8 KTS
10,000+ meters Overcast
1,200' AGL
13° C
55° F
12° C
54° F
94% 29.79" Hg
1009 hPa
MVFR
Oct-18
13:50 UTC
110°
9 KTS
10,000+ meters Broken
1,300' AGL
13° C
55° F
11° C
52° F
88% 29.79" Hg
1009 hPa
MVFR
Oct-18
12:50 UTC
120°
10 KTS
10,000+ meters Overcast
1,200' AGL
12° C
54° F
11° C
52° F
94% 29.82" Hg
1010 hPa
MVFR
Oct-18
11:50 UTC
110°
5 KTS
10,000+ meters Broken
700' AGL
12° C
54° F
11° C
52° F
94% 29.82" Hg
1010 hPa
IFR
Oct-18
10:50 UTC
080°
4 KTS
10,000+ meters Broken
2,100' AGL
12° C
54° F
10° C
50° F
88% 29.82" Hg
1010 hPa
MVFR
Oct-18
09:50 UTC
090°
4 KTS
10,000+ meters Overcast
2,000' AGL
12° C
54° F
C
48° F
82% 29.82" Hg
1010 hPa
MVFR